Wind_Speed
20 26 27 28 26 28 27 29 27 24 21 22 20 16 13 17 16 17 17 15 9 7 9 11 8 7 4 3 1 2 5 9 1 6 12 14 5 5 6 9 6 6 5
20 20 28 28 29 27 31 30 30 25 24 20 19 17 19 19 20 19 17 15 12 9 10 9 9 12 5 6 4 1 5 9 3 3 12 1 8 8 11 8 7 4 9
21 21 22 28 29 31 32 32 31 28 26 21 20 22 21 18 15 19 14 15 12 9 10 6 7 3 2 1 5 3 1 8 0 2 2 4 1 1 11 11 8 6 5
21 20 21 27 29 30 32 32 32 30 28 30 24 24 21 14 17 17 20 19 18 15 14 10 10 8 4 8 3 3 2 4 7 6 4 2 1 2 2 10 11 9 10
22 21 23 30 31 30 33 34 34 33 31 31 29 27 19 19 18 16 15 21 15 13 17 12 11 8 6 7 7 4 3 2 5 10 5 6 3 3 1 1 5 9 14
23 23 30 32 32 32 34 35 34 34 33 32 36 25 26 25 21 21 20 17 19 19 15 16 14 12 9 10 8 7 5 5 2 5 6 7 2 6 5 3 7 6 6
21 22 22 23 33 34 35 36 35 35 34 31 33 35 24 28 24 12 17 18 20 20 22 17 18 15 14 11 10 11 8 7 4 3 7 10 4 4 6 4 7 4 7
22 23 24 23 32 36 34 34 37 36 35 35 31 31 31 23 24 21 17 19 19 21 27 27 24 18 17 17 18 15 17 14 10 7 4 8 6 4 11 6 2 2 3
23 23 23 26 31 35 36 36 36 37 36 35 32 32 32 30 25 24 26 18 23 16 26 29 24 22 19 16 16 16 16 9 12 9 9 7 10 9 7 2 3 3 2
21 21 20 23 30 34 36 35 35 38 36 35 35 33 33 33 31 28 28 29 22 23 26 27 26 23 23 24 21 17 18 18 15 12 13 15 12 9 8 11 8 11 12
15 19 21 27 32 33 35 36 37 35 36 36 35 34 34 33 35 29 32 29 30 26 24 29 28 27 26 25 25 23 22 23 22 19 16 9 11 11 10 10 6 7 7
13 16 18 20 29 32 34 36 36 35 37 37 36 37 36 34 34 35 30 33 29 29 35 30 30 29 30 29 29 27 22 22 24 20 16 14 12 15 14 12 10 10 12
2 17 18 21 21 31 34 35 37 37 36 37 38 37 35 35 36 36 36 29 32 33 32 33 35 33 34 33 35 32 27 24 24 21 20 18 17 16 14 12 14 13 11
7 13 12 18 20 32 35 37 37 38 37 38 38 37 37 38 38 35 34 35 34 35 32 34 32 32 33 35 35 29 26 26 23 21 20 18 18 18 19 19 17 16 15
10 6 6 11 19 24 33 37 36 39 39 39 38 38 37 38 35 34 34 35 35 32 32 29 29 30 30 29 28 27 26 26 23 21 21 19 18 18 20 19 19 18 16
9 14 12 9 12 20 31 36 37 40 38 38 39 38 38 37 37 35 34 31 31 30 30 30 30 28 27 27 28 26 24 27 24 22 19 19 19 22 24 26 21 20 18
11 8 12 12 10 21 33 35 38 37 38 34 37 37 37 36 34 33 30 29 29 29 29 28 27 23 23 26 24 31 27 24 23 22 20 19 20 19 19 18 17 21 22
15 12 10 13 17 23 29 32 33 34 35 29 34 34 33 33 32 30 29 28 26 25 22 21 22 25 20 20 21 17 21 26 24 23 22 23 22 19 17 21 21 24 23
12 13 16 23 24 25 28 29 33 34 26 33 28 33 28 29 28 27 24 22 20 18 19 19 21 18 19 20 21 22 26 29 26 21 20 19 21 24 23 24 22 25 24
14 9 21 23 25 25 27 28 26 30 32 27 28 25 26 27 25 23 20 20 20 17 17 19 19 20 24 22 22 23 25 22 23 23 25 25 26 24 23 20 21 15 16
14 4 14 14 25 28 28 26 26 25 28 23 22 21 21 21 20 18 20 16 15 14 17 17 18 21 24 21 19 20 26 22 20 26 24 23 19 21 21 18 14 12 14
3 11 8 13 23 25 25 20 17 20 21 22 21 20 19 18 16 17 15 16 16 15 15 15 16 17 16 15 16 17 22 19 14 10 9 13 14 16 13 11 12 15 15
7 13 13 12 14 18 24 19 20 24 24 23 22 20 19 15 20 20 18 17 15 14 14 14 14 14 10 11 13 15 16 16 20 13 14 11 9 11 9 10 12 13 13
9 17 17 11 13 22 22 23 25 26 25 24 21 22 21 19 19 19 19 15 13 11 11 12 8 7 8 10 10 12 14 13 13 11 3 6 6 8 10 13 13 14 12
13 17 14 13 16 22 24 24 23 25 24 23 20 20 22 20 19 16 12 12 11 11 11 12 12 11 13 14 12 8 9 11 11 8 8 11 9 14 19 19 16 15 14
18 16 17 17 19 20 20 20 22 22 24 21 19 19 19 17 14 15 12 11 11 9 8 10 13 10 9 12 12 8 8 7 11 14 13 11 15 14 5 20 20 20 19
Wind_Direction
189 185 191 187 192 182 181 186 197 202 180 182 188 210 233 204 209 234 231 179 186 208 224 238 259 255 267 156 71 325 309 282 235 311 293 251 183 169 102 85 47 17 42
186 190 183 195 190 189 186 188 193 203 199 193 187 200 224 225 219 225 196 208 212 203 222 242 247 228 214 173 161 41 312 311 167 328 333 156 205 186 129 125 114 82 54
196 182 186 194 193 189 186 189 191 195 197 196 195 211 225 242 234 225 184 201 199 215 218 213 224 143 117 183 120 156 266 313 167 81 329 350 41 253 153 151 165 139 137
192 187 185 188 199 192 190 188 187 191 194 198 198 201 210 219 219 221 215 211 198 205 206 221 202 189 181 153 125 175 214 291 323 170 144 74 1 354 28 192 162 182 176
191 195 186 187 196 194 188 187 187 190 193 197 206 206 203 215 233 229 231 182 189 186 202 189 183 184 193 198 151 126 185 221 305 330 190 161 203 206 256 12 210 221 176
188 190 184 186 191 197 188 188 185 191 193 195 204 207 198 211 221 222 167 168 175 191 195 180 185 182 188 176 176 184 195 226 281 290 341 316 306 184 223 243 352 332 344
186 185 184 185 186 192 189 187 185 188 194 196 199 208 208 214 225 232 197 188 192 190 188 188 191 189 195 190 184 186 193 209 211 268 284 331 252 343 344 323 302 32 351
189 185 186 185 187 188 190 187 186 188 192 195 197 202 208 210 224 221 211 198 204 203 198 194 195 189 200 193 196 192 189 185 206 209 245 301 314 265 258 251 272 355 334
187 183 184 187 183 187 188 189 185 187 191 193 196 199 205 204 210 212 219 208 212 218 197 193 189 193 194 197 208 203 195 175 189 207 219 237 256 285 297 41 64 177 244
176 182 182 183 184 185 189 189 190 187 190 192 195 199 200 204 210 214 216 217 210 211 194 192 188 195 201 205 202 208 198 192 192 215 231 219 241 286 303 298 270 258 236
183 184 180 179 181 182 188 191 192 188 190 192 195 199 202 204 207 212 215 215 216 211 198 191 190 196 202 203 208 208 209 204 200 196 222 234 218 246 259 292 301 312 314
208 180 176 175 176 182 186 191 193 193 191 192 195 199 203 204 206 213 215 212 211 213 208 199 197 198 204 205 209 213 216 203 206 205 202 225 230 236 241 265 278 290 285
239 183 183 172 179 184 186 189 193 195 192 193 197 200 203 203 208 210 213 214 210 210 210 203 201 200 203 204 210 215 213 215 212 208 207 217 224 234 232 242 256 276 286
226 164 183 175 183 185 185 187 191 194 194 194 199 201 202 205 208 210 210 211 212 209 208 205 204 205 205 207 211 210 216 215 214 213 208 211 223 228 235 244 253 262 271
146 171 193 180 184 181 184 185 190 192 195 196 198 203 205 208 210 210 211 211 213 210 211 210 211 211 208 208 206 210 214 219 220 219 219 216 224 225 237 240 249 251 250
217 178 189 182 177 178 184 187 188 190 196 197 198 202 204 206 207 209 211 209 212 211 209 208 211 210 205 210 215 214 216 221 220 223 219 218 227 236 239 246 248 247 258
211 175 189 195 195 182 182 186 191 187 195 197 195 200 201 201 203 205 206 212 209 211 205 211 210 213 206 207 218 222 220 222 226 225 214 223 232 242 248 252 251 253 255
203 216 202 183 193 192 182 187 186 190 191 192 193 199 198 194 196 199 204 205 202 202 203 209 212 204 198 215 230 235 240 226 229 224 219 224 237 241 241 241 249 259 272
219 203 221 180 183 187 188 182 185 190 189 193 189 197 190 183 186 192 193 196 191 195 205 209 203 195 212 217 224 232 232 233 234 228 223 226 238 244 246 249 258 269 273
247 254 225 166 169 180 182 180 185 188 196 192 190 179 176 173 178 180 176 182 190 204 208 201 202 204 218 230 235 229 222 226 228 232 234 234 239 248 254 260 268 261 272
229 265 142 156 165 173 174 177 180 187 192 179 172 171 171 170 171 168 178 186 188 194 194 199 209 222 227 236 238 235 225 230 238 242 242 238 240 250 260 264 247 254 266
149 144 149 147 157 167 159 161 164 167 167 158 156 154 156 158 156 158 164 176 182 174 185 204 213 222 221 241 232 230 225 234 230 253 227 226 251 251 256 246 251 264 278
114 115 105 115 135 131 143 140 138 148 144 141 140 140 142 151 159 161 165 161 169 170 176 188 202 213 220 214 211 219 226 223 241 245 243 242 251 237 231 241 265 272 277
95 105 112 106 109 116 124 126 133 135 134 127 123 126 127 128 146 154 152 151 162 174 192 202 195 207 182 185 198 213 209 211 206 224 216 243 219 230 234 237 244 249 251
99 103 112 117 117 113 115 118 124 124 112 115 119 124 129 136 137 140 152 164 168 191 200 202 183 169 165 176 185 186 199 196 202 184 191 203 226 231 236 230 228 227 235
87 92 95 99 102 106 114 124 130 132 132 135 139 141 140 135 133 134 121 139 152 147 130 142 159 171 158 184 185 175 174 166 175 192 209 237 251 244 294 204 221 232 240
Height
741 747 756 762 769 774 780 785 791 795 800 803 808 812 814 816 819 821 823 824 827 829 831 832 834 834 836 836 837 838 838 838 838 837 836 837 837 838 838 839 841 842 842
733 741 749 756 762 768 774 780 786 791 796 800 805 809 811 813 814 816 818 820 823 826 828 830 831 832 833 834 836 837 838 837 837 838 836 836 837 837 837 840 841 842 843
726 733 741 749 755 761 767 773 781 787 792 797 802 807 810 810 812 813 815 817 819 823 827 829 831 831 832 833 835 837 838 838 838 838 840 838 841 837 838 839 840 841 841
715 722 731 740 748 754 761 769 775 782 788 794 798 801 805 806 807 808 811 813 817 819 822 826 828 829 831 832 834 835 837 837 838 838 839 840 841 841 841 839 839 839 841
703 712 721 730 740 748 754 762 769 776 782 787 793 797 800 803 804 806 807 808 813 816 819 822 825 827 830 831 832 834 835 836 836 837 838 838 839 840 840 841 840 839 840
690 700 711 721 731 740 747 755 762 770 776 782 788 792 796 798 800 802 804 806 810 813 817 819 822 824 827 828 831 833 835 836 836 836 837 838 838 838 838 840 838 838 839
680 690 700 709 719 728 737 746 754 762 770 777 782 786 791 793 796 798 799 802 805 809 813 816 819 822 825 827 829 830 832 835 836 836 837 837 836 837 838 838 839 840 838
667 678 688 698 709 719 730 738 746 754 762 770 776 781 786 789 791 794 795 797 801 804 806 809 813 818 821 822 822 823 823 826 833 834 835 836 836 836 837 837 837 838 838
657 667 678 689 701 712 720 730 738 746 755 762 769 774 778 783 786 788 791 794 797 800 801 804 809 814 819 822 825 826 825 827 829 832 832 833 834 834 834 835 836 837 839
649 657 668 680 691 704 714 724 732 738 748 756 762 767 771 775 779 783 785 789 793 797 797 801 806 810 814 815 818 821 822 820 823 827 830 830 831 833 832 834 834 834 834
642 648 657 669 683 696 707 715 724 733 741 749 755 760 764 768 772 776 779 782 788 790 793 796 800 805 809 812 815 816 818 818 816 816 823 827 827 828 830 831 831 831 831
634 639 647 660 673 685 698 708 717 725 733 741 747 751 756 761 765 769 773 777 781 785 789 792 795 799 803 805 808 812 813 813 815 815 816 821 825 826 827 827 828 828 828
630 634 639 652 664 675 686 697 708 717 726 733 738 743 748 753 756 760 766 771 775 778 781 784 787 790 794 797 799 803 806 809 810 811 812 814 819 821 823 824 825 826 825
629 632 638 645 654 664 675 686 698 708 717 724 729 734 739 743 747 753 759 764 766 770 774 778 782 785 789 792 796 800 803 804 805 807 807 810 814 816 817 819 821 822 821
628 631 635 640 647 657 667 676 688 698 707 713 719 724 730 735 741 747 751 755 760 764 770 774 778 781 785 789 793 797 800 802 803 804 804 804 809 810 812 814 816 817 817
624 626 631 635 642 650 660 668 677 687 696 703 709 715 722 727 732 738 744 749 755 759 764 767 771 774 778 785 789 793 795 797 799 799 800 800 802 804 807 808 810 811 810
617 620 627 631 634 642 650 661 668 677 687 694 701 707 712 718 726 733 739 744 749 754 757 762 767 771 778 780 783 786 790 792 794 795 796 797 798 801 801 803 804 804 803
608 611 616 623 630 635 645 655 664 671 678 686 693 700 705 711 719 727 732 737 742 747 753 758 762 767 772 778 780 783 785 786 788 790 790 791 793 797 798 797 798 799 798
599 601 605 612 622 629 637 647 656 663 671 678 685 692 699 706 714 721 727 733 739 745 750 754 759 764 770 774 776 778 779 781 783 785 787 787 787 789 791 792 794 795 792
593 594 595 605 614 624 631 641 650 658 664 671 678 686 694 702 710 718 725 730 736 742 746 751 756 761 765 769 769 772 774 776 778 780 780 781 782 786 787 790 790 789 788
586 591 596 602 609 620 628 637 645 653 662 670 679 686 694 702 709 716 722 729 735 741 745 749 753 757 761 764 766 767 769 771 774 775 776 776 777 780 782 783 785 786 786
582 588 597 603 611 619 629 639 648 657 665 672 680 687 696 702 709 716 722 729 734 738 743 746 750 753 757 758 760 763 766 768 770 772 772 774 775 776 777 781 781 783 782
588 594 606 614 620 624 631 641 650 660 667 674 682 690 698 704 709 714 723 729 732 736 740 743 745 749 752 754 756 758 761 764 765 767 767 768 770 773 776 778 778 779 779
596 602 610 621 629 633 640 646 655 662 669 676 685 692 697 704 711 718 722 727 732 735 738 740 743 747 748 750 752 753 755 758 759 763 765 768 768 770 772 773 774 775 775
606 613 621 629 637 641 646 652 661 666 671 679 687 695 702 708 713 717 723 727 729 732 735 738 741 742 745 748 750 753 754 755 757 761 763 766 765 766 766 767 769 770 771
618 627 635 642 646 651 654 658 665 670 674 683 692 698 705 711 716 719 725 728 729 732 735 736 738 740 743 745 748 751 754 754 757 760 762 763 762 761 761 763 765 766 767